Boothville, LA

6:46 PM CDT on September 22, 2017 (GMT -0500)
Boothville

Weather History for KBVE - January, 2013

Change the Weather History Date:

Thursday, January 10, 2013

  Actual Average (KAXO) Record (KAXO)
Temperature  
Mean Temperature 64 °F -  
Max Temperature 69 °F 58 °F 69 °F (2000)
Min Temperature 60 °F 55 °F 46 °F (2016)
Growing Degree Days 14 (Base 50)    
Moisture  
Dew Point 66 °F    
Average Humidity 100    
Maximum Humidity 100    
Minimum Humidity 100    
Precipitation  
Precipitation 1.21 in - - ()
Sea Level Pressure  
Sea Level Pressure 30.13 in    
Wind  
Wind Speed 11 mph (SE)    
Max Wind Speed 24 mph    
Max Gust Speed 37 mph    
Visibility 3 miles    
Events Fog , Rain    
Averages and records for this station are not official NWS values.
T = Trace of Precipitation, MM = Missing Value Source: NWS Daily Summary

Daily Weather History Graph

Daily Weather History Graph

Search for Another Location

Airport or City:

Trip Planner

Search our weather history database for the weather conditions in past years. The results will help you decide how hot, cold, wet, or windy it might be!

Date:

Astronomy

Jan. 10, 2013 Rise Set
Actual Time 6:53 AM CST 5:17 PM CST
Civil Twilight 6:27 AM CST 5:43 PM CST
Nautical Twilight 5:58 AM CST 6:12 PM CST
Astronomical Twilight 5:29 AM CST 6:41 PM CST
Moon 5:33 AM CST (1/10) 4:24 PM CST (1/10)
Length of Visible Light 11h 16m
Length of Day
10h 24m
Waning Crescent, 2% of the Moon is Illuminated
Jan 10
Waning Crescent
Jan 11
New
Jan 18
First Quarter
Jan 26
Full
Feb 3
Last Quarter

Hourly Weather History & Observations

Time (CST) Temp. Dew Point Humidity Pressure Visibility Wind Dir Wind Speed Gust Speed Precip Events Conditions
12:51 AM 66.0 °F 66.0 °F 100% 30.17 in 0.2 mi ESE 11.5 mph - N/A Fog Fog
1:51 AM 66.0 °F 66.0 °F 100% 30.17 in 0.2 mi ESE 9.2 mph - N/A Fog Fog
2:51 AM 66.0 °F 66.0 °F 100% 30.15 in 0.2 mi ESE 8.1 mph - N/A Fog Fog
3:51 AM 66.9 °F 66.9 °F 100% 30.12 in 0.2 mi ESE 10.4 mph - N/A Fog Fog
4:17 AM 66.2 °F 66.2 °F 100% 30.10 in 0.2 mi ESE 10.4 mph - N/A Fog Fog
4:51 AM 66.9 °F - N/A% 30.09 in 0.2 mi ESE 11.5 mph - N/A Fog Fog
5:00 AM 66.2 °F - N/A% 30.09 in 0.2 mi ESE 12.7 mph - N/A Fog Fog
5:33 AM 66.2 °F - N/A% 30.09 in 0.8 mi ESE 12.7 mph 20.7 mph N/A   Mist
5:51 AM 66.9 °F - N/A% 30.09 in 0.5 mi ESE 15.0 mph - N/A Fog Fog
6:22 AM 66.2 °F - N/A% 30.10 in 1.2 mi ESE 11.5 mph - N/A   Overcast
6:41 AM 66.2 °F - N/A% 30.11 in 3.0 mi ESE 11.5 mph 18.4 mph N/A   Overcast
6:51 AM 66.9 °F - N/A% 30.11 in 3.0 mi ESE 12.7 mph - N/A   Overcast
6:58 AM 66.2 °F - N/A% 30.12 in 2.5 mi ESE 11.5 mph - N/A   Overcast
7:28 AM 66.2 °F - N/A% 30.13 in 1.8 mi ESE 9.2 mph - N/A   Overcast
7:51 AM 66.9 °F - N/A% 30.14 in 1.8 mi ESE 8.1 mph - N/A   Overcast
8:02 AM 66.2 °F - N/A% 30.15 in 2.5 mi ESE 8.1 mph - N/A   Overcast
8:09 AM 66.2 °F - N/A% 30.16 in 3.0 mi SE 8.1 mph - N/A   Overcast
8:51 AM 69.1 °F - N/A% 30.18 in 4.0 mi ESE 11.5 mph - N/A   Haze
9:51 AM 69.1 °F - N/A% 30.16 in 4.0 mi ESE 12.7 mph 19.6 mph N/A   Haze
10:26 AM 69.8 °F - N/A% 30.15 in 3.0 mi ESE 12.7 mph - N/A   Overcast
10:51 AM 69.1 °F - N/A% 30.15 in 3.0 mi ESE 15.0 mph 20.7 mph N/A   Overcast
11:51 AM 68.0 °F - N/A% 30.19 in 4.0 mi WSW 18.4 mph 25.3 mph 0.00 in Rain Light Rain
11:58 AM 64.4 °F - N/A% 30.19 in 2.5 mi WSW 13.8 mph 25.3 mph 0.01 in Rain Rain
12:04 PM 64.4 °F - N/A% 30.19 in 0.8 mi SW 13.8 mph - 0.04 in Rain Heavy Rain
12:27 PM 64.4 °F - N/A% 30.16 in 0.5 mi SSE 6.9 mph - 0.39 in Rain Heavy Rain
12:37 PM 64.4 °F - N/A% 30.15 in 1.5 mi South 8.1 mph - 0.45 in Rain Rain
12:51 PM 64.0 °F - N/A% 30.14 in 2.5 mi SE 5.8 mph - 0.50 in Rain Light Rain
12:58 PM 64.4 °F - N/A% 30.13 in 5.0 mi SE 5.8 mph - 0.00 in Rain Light Rain
1:49 PM 62.6 °F - N/A% 30.13 in 1.5 mi NE 4.6 mph - 0.06 in Rain Rain
1:51 PM 62.1 °F - N/A% 30.13 in 0.8 mi NE 3.5 mph - 0.07 in Rain Rain
2:51 PM 62.1 °F - N/A% 30.15 in 0.8 mi Calm Calm - 0.11 in Rain Light Rain
3:00 PM 62.6 °F - N/A% 30.15 in 1.5 mi Calm Calm - 0.02 in Rain Light Rain
3:51 PM 64.0 °F - N/A% 30.17 in 2.0 mi ESE 3.5 mph - 0.17 in Rain Rain
4:04 PM 62.6 °F - N/A% 30.14 in 0.8 mi East 4.6 mph - 0.03 in Rain Rain
4:15 PM 62.6 °F - N/A% 30.14 in 0.2 mi East 8.1 mph - 0.05 in Rain Light Rain
4:47 PM 62.6 °F - N/A% 30.11 in 0.5 mi ESE 10.4 mph - 0.08 in Rain Light Rain
4:51 PM 61.0 °F - N/A% 30.11 in 0.2 mi ESE 11.5 mph - 0.08 in Rain Light Rain
4:59 PM 60.8 °F - N/A% 30.11 in 0.2 mi ESE 11.5 mph - 0.00 in Rain Light Rain
5:04 PM 60.8 °F - N/A% 30.11 in 0.5 mi ESE 10.4 mph - 0.01 in Rain Light Rain
5:12 PM 60.8 °F - N/A% 30.11 in 1.0 mi ESE 12.7 mph - 0.01 in Rain Light Rain
5:23 PM 62.6 °F - N/A% 30.14 in 2.5 mi SE 11.5 mph - 0.02 in Rain Light Rain
5:30 PM 62.6 °F - N/A% 30.13 in 5.0 mi SE 11.5 mph - 0.04 in Rain Light Rain
5:51 PM 63.0 °F - N/A% 30.14 in 7.0 mi SE 11.5 mph - 0.08 in Rain Light Rain
6:51 PM 62.1 °F - N/A% 30.12 in 8.0 mi SE 20.7 mph 27.6 mph 0.12 in Rain Light Rain
7:51 PM 63.0 °F - N/A% 30.06 in 10.0 mi SE 24.2 mph 36.8 mph 0.07 in Rain Light Rain
8:51 PM 64.0 °F - N/A% 30.04 in 10.0 mi SE 20.7 mph 34.5 mph 0.01 in   Clear
9:51 PM 64.0 °F - N/A% 30.08 in 9.0 mi SE 11.5 mph 20.7 mph N/A   Clear
10:07 PM 64.4 °F - N/A% 30.09 in 8.0 mi SSE 9.2 mph 18.4 mph N/A   Partly Cloudy
10:51 PM 64.9 °F - N/A% 30.11 in 8.0 mi SSE 6.9 mph - N/A   Partly Cloudy
11:51 PM 64.9 °F 64.9 °F 100% 30.11 in 7.0 mi SE 8.1 mph - N/A   Clear